EW2725 Weather Reports


Display with metric or nautical units.
time (UTC)temp
F
wind
direction
speed
MPH
gust
MPH
rain 1hr
in
rain 24hr
in
rain mn
in
humidity
%
barometer
mb
20260504034505 38 0 0.0 0.0 0.00 0.06 0.04 83 1010.8
20260504034502 36 244 0.0 0.0 0.00 0.00 0.04 77 1100.1
20260504034006 38 0 0.0 0.0 0.00 0.06 0.04 82 1010.8
20260504033012 37 244 0.0 0.0 0.00 0.00 0.04 77 1100.1
20260504033005 38 0 0.0 0.0 0.00 0.07 0.04 81 1010.8
20260504032505 39 0 0.0 0.0 0.00 0.08 0.04 80 1010.7
20260504031558 38 244 0.0 0.0 0.00 0.00 0.04 75 1100.1
20260504030505 39 0 0.0 0.0 0.00 0.09 0.04 78 1010.6
20260504030005 40 0 0.0 0.0 0.00 0.09 0.04 77 1010.7
20260504025505 40 0 0.0 0.0 0.00 0.09 0.04 76 1010.6
20260504024517 38 244 0.0 0.0 0.00 0.00 0.04 76 1100.1
20260504024505 40 0 0.0 0.0 0.00 0.10 0.04 76 1010.5
20260504024007 40 0 0.0 0.0 0.00 0.10 0.04 76 1010.6
20260504023505 40 0 0.0 0.0 0.00 0.10 0.04 76 1010.5
20260504023103 39 244 0.0 0.0 0.00 0.00 0.04 74 1100.1
20260504021558 40 244 0.0 0.0 0.00 0.00 0.04 74 1100.1
20260504021506 40 0 0.0 0.0 0.00 0.12 0.04 76 1010.5
20260504020505 41 0 0.0 0.0 0.00 0.13 0.04 74 1010.4
20260504020010 40 244 0.0 0.0 0.00 0.00 0.04 70 1100.1
20260504020005 41 0 0.0 0.0 0.00 0.14 0.04 73 1010.4
20260504015005 41 0 0.0 0.0 0.00 0.16 0.04 72 1010.2
20260504014645 41 244 0.0 0.0 0.00 0.00 0.04 68 1100.1
20260504013145 42 244 0.0 0.0 0.00 0.00 0.04 67 1100.1
20260504013006 42 0 0.0 0.0 0.00 0.19 0.04 66 1010.2
20260504012006 43 0 0.0 0.0 0.00 0.20 0.04 67 1010.1
20260504011520 43 244 0.0 0.0 0.00 0.00 0.04 64 1100.1
20260504010005 44 0 0.0 0.0 0.00 0.21 0.04 64 1009.8
20260504005505 44 0 0.0 0.0 0.00 0.22 0.04 62 1009.7
20260504005006 45 0 0.0 0.0 0.00 0.22 0.04 63 1009.6
20260504004645 46 244 0.0 0.0 0.00 0.00 0.04 53 1100.1
20260504003013 47 244 1.0 0.0 0.00 0.00 0.04 49 1100.1
20260504003006 47 0 0.0 0.0 0.00 0.24 0.04 54 1009.3
20260504002505 48 0 0.0 0.0 0.00 0.25 0.04 52 1009.2
20260504002006 48 0 0.0 0.0 0.00 0.25 0.04 52 1009.2
20260504001523 49 244 1.0 0.0 0.00 0.00 0.04 48 1100.1
20260504001505 49 0 0.0 0.0 0.00 0.25 0.04 49 1009.2
20260504001006 49 0 0.0 0.0 0.00 0.26 0.04 46 1009.1
20260504000142 50 244 3.0 0.0 0.00 0.00 0.04 45 1100.1
20260504000006 50 0 0.0 0.0 0.00 0.26 0.04 46 1008.9
20260503235006 50 0 0.0 0.0 0.00 0.26 0.04 44 1008.8
20260503234502 51 244 6.0 0.0 0.00 0.00 0.04 44 1100.1
20260503233507 50 0 0.0 0.0 0.00 0.27 0.04 45 1008.5
20260503233057 51 300 4.0 0.0 0.00 0.00 0.04 45 1100.1
20260503231557 51 294 6.0 0.0 0.00 0.00 0.04 44 1100.1
20260503231505 51 0 0.0 0.0 0.00 0.29 0.04 44 1008.1
20260503231005 51 0 0.0 0.0 0.00 0.30 0.04 43 1008.0
20260503230505 52 0 0.0 0.0 0.00 0.30 0.04 44 1007.9
20260503230146 52 312 7.0 0.0 0.00 0.00 0.04 43 1100.1
20260503230006 52 0 0.0 0.0 0.00 0.30 0.04 44 1007.9
20260503225505 52 0 0.0 0.0 0.00 0.31 0.04 45 1007.7
20260503224635 52 335 5.0 0.0 0.00 0.00 0.04 44 1100.1
20260503224506 52 0 0.0 0.0 0.00 0.31 0.04 45 1007.5
20260503223123 52 306 6.0 0.0 0.00 0.00 0.04 43 1100.1
20260503223006 52 0 0.0 0.0 0.00 0.31 0.04 43 1007.2
20260503222006 53 0 0.0 0.0 0.00 0.31 0.04 43 1007.1
20260503221621 53 273 6.0 0.0 0.00 0.00 0.04 44 1100.1
20260503221506 53 0 0.0 0.0 0.00 0.31 0.04 42 1007.0
20260503220122 54 331 6.0 0.0 0.00 0.00 0.04 43 1100.1
20260503215505 53 0 0.0 0.0 0.00 0.31 0.04 47 1006.7
20260503215006 53 0 0.0 0.0 0.00 0.31 0.04 46 1006.7
20260503214611 53 288 7.0 0.0 0.00 0.00 0.04 45 1100.1
20260503214506 53 0 0.0 0.0 0.00 0.31 0.04 45 1006.7
20260503214005 53 0 0.0 0.0 0.00 0.31 0.04 45 1006.6
20260503213505 53 0 0.0 0.0 0.00 0.31 0.04 45 1006.6
20260503213108 53 301 7.0 0.0 0.00 0.00 0.04 45 1100.1
20260503212506 53 0 0.0 0.0 0.00 0.31 0.04 45 1006.4
20260503212006 53 0 0.0 0.0 0.00 0.31 0.04 45 1006.3
20260503211614 53 340 8.0 0.0 0.00 0.00 0.04 44 1100.1
20260503211505 53 0 0.0 0.0 0.00 0.31 0.04 43 1006.3
20260503210109 53 304 5.0 0.0 0.00 0.00 0.04 48 1100.1
20260503205006 53 0 0.0 0.0 0.00 0.31 0.04 46 1005.9
20260503204511 53 293 6.0 0.0 0.00 0.00 0.04 47 1100.1
20260503203505 53 0 0.0 0.0 0.00 0.31 0.04 47 1005.8
20260503203011 53 251 7.0 0.0 0.00 0.00 0.04 47 1100.1
20260503201641 53 298 7.0 0.0 0.00 0.00 0.04 49 1100.1
20260503201005 54 0 0.0 0.0 0.00 0.31 0.04 47 1005.6
20260503200505 54 0 0.0 0.0 0.00 0.31 0.04 50 1005.6
20260503200010 53 294 7.0 0.0 0.00 0.00 0.04 51 1100.1
20260503200006 53 0 0.0 0.0 0.00 0.31 0.04 50 1005.6
20260503194645 52 49 7.0 0.0 0.00 0.00 0.04 52 1100.1
20260503194005 52 0 0.0 0.0 0.00 0.31 0.04 55 1005.7
20260503193506 52 0 0.0 0.0 0.00 0.31 0.04 55 1005.7
20260503193138 51 292 7.0 0.0 0.00 0.00 0.04 54 1100.1
20260503191640 51 335 8.0 0.0 0.00 0.00 0.04 55 1100.1
20260503191006 51 0 0.0 0.0 0.00 0.31 0.04 56 1005.8
20260503190151 52 329 6.0 0.0 0.00 0.00 0.04 55 1100.1
20260503185005 50 0 0.0 0.0 0.00 0.31 0.04 59 1005.8
20260503184632 50 313 6.0 0.0 0.00 0.00 0.04 58 1100.1
20260503184505 50 0 0.0 0.0 0.00 0.31 0.04 59 1005.9
20260503184006 49 0 0.0 0.0 0.00 0.31 0.04 59 1006.0
20260503183505 49 0 0.0 0.0 0.00 0.31 0.04 60 1006.0
20260503183121 49 355 8.0 0.0 0.00 0.00 0.04 60 1100.1
20260503182006 49 0 0.0 0.0 0.00 0.31 0.04 61 1005.9
20260503181612 49 297 8.0 0.0 0.00 0.00 0.04 61 1100.1
20260503181505 49 0 0.0 0.0 0.00 0.31 0.04 62 1005.9
20260503180115 49 327 7.0 0.0 0.00 0.00 0.04 65 1100.1
20260503180005 49 0 0.0 0.0 0.00 0.31 0.04 66 1005.9
20260503175506 49 0 0.0 0.0 0.00 0.31 0.04 67 1005.9
20260503174607 49 349 8.0 0.0 0.00 0.00 0.04 65 1100.1
20260503174005 50 0 0.0 0.0 0.00 0.31 0.04 66 1005.7
20260503173506 50 0 0.0 0.0 0.00 0.31 0.04 66 1005.7
20260503173013 49 275 10.0 0.0 0.00 0.00 0.04 64 1100.1
20260503172505 51 0 0.0 0.0 0.00 0.31 0.04 67 1005.5
20260503172006 51 0 0.0 0.0 0.00 0.31 0.04 66 1005.5
20260503171611 50 238 6.0 0.0 0.00 0.00 0.04 68 1100.1
20260503171006 49 0 0.0 0.0 0.00 0.31 0.04 73 1005.5
20260503170505 49 0 0.0 0.0 0.00 0.31 0.04 72 1005.5
20260503170125 48 298 8.0 0.0 0.00 0.00 0.04 69 1100.1
20260503160136 48 327 8.0 0.0 0.00 0.00 0.04 71 1100.1
20260503151006 46 0 0.0 0.0 0.00 0.31 0.04 83 1005.1
20260503150506 46 0 0.0 0.0 0.00 0.31 0.04 83 1005.1
20260503150111 46 333 7.0 0.0 0.00 0.00 0.04 79 1100.1
20260503130128 46 5 6.0 0.0 0.00 0.00 0.04 78 1100.1
20260503120129 44 307 3.0 0.0 0.00 0.00 0.04 86 1100.1
20260503110130 44 336 1.0 0.0 0.00 0.00 0.04 86 1100.1
20260503090505 44 0 0.0 0.0 0.01 0.31 0.04 95 1006.3
20260503090112 45 318 1.0 0.0 0.00 0.00 0.04 88 1100.1
20260503081508 45 233 2.0 0.0 0.00 0.00 0.04 89 1100.1
20260503080505 45 0 0.0 0.0 0.00 0.30 0.03 95 1006.9
20260503072505 46 0 0.0 0.0 0.01 0.30 0.03 95 1007.4
20260503071629 46 233 2.0 0.0 0.00 0.00 0.03 91 1100.1
20260503070505 47 358 0.0 0.0 0.01 0.30 0.03 95 1007.5
20260503070104 47 233 3.0 0.0 0.00 0.00 0.03 91 1100.1
20260503060105 48 219 0.0 0.0 0.00 0.00 0.02 91 1100.1
20260503054515 48 219 0.0 0.0 0.00 0.00 0.01 91 1100.1
20260503053505 48 0 0.0 0.0 0.00 0.28 0.01 95 1008.6
20260503053121 48 219 0.0 0.0 0.00 0.00 0.00 91 1100.1
20260503052504 48 0 0.0 0.0 0.01 0.28 0.01 95 1008.7
20260503051624 48 219 0.0 0.0 0.00 0.00 0.00 91 1100.1
20260503050505 48 358 0.0 0.0 0.01 0.28 0.01 95 1009.0
20260503050115 48 219 0.0 0.0 0.00 0.00 0.00 91 1100.1
20260503045504 48 358 0.0 0.0 0.01 0.28 0.01 95 1009.1
20260503045005 48 358 0.0 0.0 0.02 0.28 0.01 95 1009.2
20260503044611 48 219 1.0 0.0 0.00 0.00 0.00 91 1100.1
20260503044505 48 358 0.0 0.0 0.03 0.28 0.01 95 1009.3
20260503044005 48 357 0.0 0.0 0.03 0.28 0.01 95 1009.3
20260503043505 48 359 0.0 0.0 0.04 0.28 0.01 94 1009.4
20260503043134 48 209 1.0 0.0 0.00 0.00 0.32 91 1100.1
20260503043005 48 359 0.0 0.0 0.03 0.27 0.00 94 1009.5
20260503042005 48 359 0.0 0.0 0.04 0.27 0.00 94 1009.6
20260503041634 48 209 1.0 0.0 0.00 0.00 0.31 91 1100.1
20260503040504 48 359 0.0 0.0 0.05 0.27 0.00 94 1009.7
20260503040011 48 209 0.0 0.0 0.00 0.00 0.31 91 1100.1
20260503040005 48 358 0.0 0.0 0.05 0.27 0.00 94 1009.6
20260503035505 48 358 0.0 0.0 0.05 0.27 0.27 94 1009.6
20260503035005 48 358 0.0 0.0 0.05 0.26 0.26 94 1009.6